Location: Beekmeers
(50.8953°N, 3.6968°E)
Time: 16:57:17
(UTC+00:00)

COBE Rocket - Pass Details

Date: 10 August 2024
Orbit: 676 x 777 km, 97.1° (Epoch: 06 September)

Event Time Altitude Azimuth Distance (km) Brightness Sun altitude
Rises 01:30:26 0° 8° (N) 3,073 8.5 -20.1°
Reaches altitude 10° 01:32:47 10° 2° (N) 2,142 7.3 -20.0°
Maximum altitude 01:37:13 45° 291° (WNW) 933 4.3 -19.7°
Enters shadow 01:38:33 35° 248° (WSW) 1,097 4.4 -19.6°
